TimeCDT,TemperatureF,Dew PointF,Humidity,Sea Level PressureIn,VisibilityMPH,Wind Direction,Wind SpeedMPH,Gust SpeedMPH,PrecipitationIn,Events,Conditions,WindDirDegrees,DateUTC
12:15 AM,57.2,46.4,67,29.68,10.0,Calm,Calm,-,N/A,,Clear,0,2013-03-16 05:15:00
12:35 AM,57.2,46.4,67,29.68,10.0,Calm,Calm,-,N/A,,Clear,0,2013-03-16 05:35:00
12:55 AM,53.6,44.6,72,29.70,10.0,WNW,6.9,-,N/A,,Clear,300,2013-03-16 05:55:00
1:15 AM,53.6,44.6,72,29.70,10.0,SSW,4.6,-,N/A,,Clear,210,2013-03-16 06:15:00
1:55 AM,53.6,44.6,72,29.70,10.0,SSW,5.8,-,N/A,,Clear,200,2013-03-16 06:55:00
2:15 AM,51.8,44.6,76,29.73,10.0,West,6.9,-,N/A,,Clear,270,2013-03-16 07:15:00
2:35 AM,53.6,44.6,72,29.75,10.0,NW,8.1,-,N/A,,Clear,310,2013-03-16 07:35:00
2:55 AM,51.8,42.8,71,29.75,10.0,NW,9.2,-,N/A,,Clear,320,2013-03-16 07:55:00
3:15 AM,51.8,42.8,71,29.77,10.0,NW,8.1,-,N/A,,Clear,320,2013-03-16 08:15:00
3:35 AM,51.8,42.8,71,29.78,10.0,NNW,10.4,-,N/A,,Clear,330,2013-03-16 08:35:00
3:55 AM,50.0,42.8,76,29.79,10.0,North,3.5,-,N/A,,Clear,350,2013-03-16 08:55:00
4:35 AM,48.2,41.0,76,29.81,10.0,NW,3.5,-,N/A,,Clear,320,2013-03-16 09:35:00
4:55 AM,46.4,41.0,81,29.81,10.0,NNW,5.8,-,N/A,,Clear,340,2013-03-16 09:55:00
5:15 AM,46.4,41.0,81,29.82,10.0,NNW,6.9,-,N/A,,Clear,330,2013-03-16 10:15:00
5:35 AM,46.4,41.0,81,29.84,10.0,NNW,10.4,-,N/A,,Clear,340,2013-03-16 10:35:00
5:55 AM,44.6,39.2,81,29.85,10.0,North,11.5,-,N/A,,Clear,350,2013-03-16 10:55:00
6:15 AM,44.6,39.2,81,29.87,10.0,North,10.4,-,N/A,,Clear,350,2013-03-16 11:15:00
6:35 AM,42.8,39.2,87,29.88,10.0,NNW,12.7,-,N/A,,Mostly Cloudy,330,2013-03-16 11:35:00
6:55 AM,41.0,35.6,81,29.89,10.0,North,20.7,26.5,N/A,,Mostly Cloudy,350,2013-03-16 11:55:00
7:15 AM,41.0,35.6,81,29.91,7.0,North,13.8,20.7,N/A,,Mostly Cloudy,350,2013-03-16 12:15:00
7:35 AM,39.2,35.6,87,29.93,7.0,NNW,19.6,24.2,N/A,,Overcast,340,2013-03-16 12:35:00
7:55 AM,39.2,33.8,81,29.92,7.0,North,16.1,25.3,N/A,,Mostly Cloudy,350,2013-03-16 12:55:00
8:15 AM,37.4,33.8,87,29.93,7.0,North,15.0,21.9,N/A,,Mostly Cloudy,360,2013-03-16 13:15:00
8:35 AM,37.4,33.8,87,29.95,10.0,North,15.0,23.0,N/A,,Overcast,350,2013-03-16 13:35:00
8:55 AM,37.4,33.8,87,29.97,10.0,North,12.7,18.4,N/A,,Overcast,350,2013-03-16 13:55:00
9:15 AM,39.2,33.8,81,29.97,10.0,North,10.4,16.1,N/A,,Overcast,360,2013-03-16 14:15:00
9:35 AM,39.2,33.8,81,29.97,10.0,North,16.1,-,N/A,,Overcast,10,2013-03-16 14:35:00
9:55 AM,39.2,33.8,81,29.98,10.0,North,12.7,17.3,N/A,,Overcast,360,2013-03-16 14:55:00
10:15 AM,39.2,33.8,81,29.99,10.0,North,16.1,-,N/A,,Overcast,350,2013-03-16 15:15:00
10:35 AM,41.0,33.8,76,29.99,10.0,North,13.8,21.9,N/A,,Overcast,350,2013-03-16 15:35:00
10:55 AM,41.0,33.8,76,30.00,10.0,North,12.7,17.3,N/A,,Overcast,350,2013-03-16 15:55:00
11:15 AM,41.0,33.8,76,30.00,10.0,North,12.7,-,N/A,,Overcast,360,2013-03-16 16:15:00
11:35 AM,41.0,33.8,76,30.00,10.0,North,13.8,19.6,N/A,,Overcast,10,2013-03-16 16:35:00
11:55 AM,41.0,33.8,76,30.02,10.0,North,11.5,-,N/A,,Overcast,360,2013-03-16 16:55:00
12:15 PM,42.8,32.0,66,30.02,10.0,NNE,12.7,19.6,N/A,,Overcast,20,2013-03-16 17:15:00
12:35 PM,42.8,32.0,66,30.02,10.0,NNE,12.7,20.7,N/A,,Mostly Cloudy,20,2013-03-16 17:35:00
12:55 PM,42.8,33.8,70,30.02,10.0,NNE,12.7,17.3,N/A,,Mostly Cloudy,20,2013-03-16 17:55:00
1:15 PM,44.6,33.8,66,30.01,10.0,NNE,11.5,18.4,N/A,,Overcast,30,2013-03-16 18:15:00
1:35 PM,42.8,33.8,70,30.02,10.0,North,13.8,18.4,N/A,,Overcast,10,2013-03-16 18:35:00
1:55 PM,42.8,33.8,70,30.01,10.0,North,15.0,19.6,N/A,,Overcast,10,2013-03-16 18:55:00
2:15 PM,42.8,32.0,66,30.01,10.0,NNE,12.7,-,N/A,,Mostly Cloudy,30,2013-03-16 19:15:00
2:35 PM,42.8,32.0,66,30.00,10.0,North,11.5,21.9,N/A,,Mostly Cloudy,360,2013-03-16 19:35:00
2:55 PM,41.0,32.0,70,30.00,10.0,North,13.8,-,N/A,,Overcast,10,2013-03-16 19:55:00
3:15 PM,41.0,32.0,70,29.98,10.0,North,13.8,-,N/A,,Overcast,10,2013-03-16 20:15:00
3:35 PM,42.8,32.0,66,30.00,10.0,North,12.7,20.7,N/A,,Mostly Cloudy,10,2013-03-16 20:35:00
3:55 PM,42.8,32.0,66,30.01,10.0,North,12.7,-,N/A,,Overcast,10,2013-03-16 20:55:00
4:15 PM,42.8,32.0,66,30.01,10.0,NNE,12.7,-,N/A,,Mostly Cloudy,20,2013-03-16 21:15:00
4:35 PM,42.8,32.0,66,30.00,10.0,NNE,11.5,16.1,N/A,,Mostly Cloudy,20,2013-03-16 21:35:00
4:55 PM,42.8,32.0,66,30.00,10.0,NNE,13.8,18.4,N/A,,Mostly Cloudy,30,2013-03-16 21:55:00
5:15 PM,42.8,32.0,66,30.00,10.0,NNE,12.7,17.3,N/A,,Mostly Cloudy,30,2013-03-16 22:15:00
5:35 PM,42.8,32.0,66,30.00,10.0,NNE,15.0,19.6,N/A,,Overcast,30,2013-03-16 22:35:00
5:55 PM,41.0,32.0,70,30.00,10.0,NNE,12.7,17.3,N/A,,Mostly Cloudy,30,2013-03-16 22:55:00
6:15 PM,41.0,32.0,70,30.01,10.0,NNE,13.8,-,N/A,,Overcast,20,2013-03-16 23:15:00
6:35 PM,41.0,32.0,70,30.01,10.0,NNE,16.1,19.6,N/A,,Overcast,20,2013-03-16 23:35:00
6:55 PM,41.0,32.0,70,30.01,10.0,North,13.8,-,N/A,,Overcast,10,2013-03-16 23:55:00
7:15 PM,41.0,32.0,70,30.01,10.0,NNE,16.1,21.9,N/A,,Overcast,20,2013-03-17 00:15:00
7:35 PM,39.2,32.0,75,30.02,10.0,NNE,15.0,19.6,N/A,,Mostly Cloudy,20,2013-03-17 00:35:00
7:55 PM,39.2,32.0,75,30.03,10.0,North,13.8,20.7,N/A,,Overcast,10,2013-03-17 00:55:00
8:15 PM,39.2,32.0,75,30.03,10.0,NNE,12.7,17.3,N/A,,Overcast,20,2013-03-17 01:15:00
8:35 PM,37.4,30.2,75,30.02,10.0,NNE,13.8,-,N/A,,Overcast,20,2013-03-17 01:35:00
8:55 PM,37.4,30.2,75,30.03,10.0,NNE,15.0,20.7,N/A,,Overcast,20,2013-03-17 01:55:00
9:15 PM,37.4,30.2,75,30.02,10.0,North,13.8,-,N/A,,Overcast,10,2013-03-17 02:15:00
9:35 PM,37.4,30.2,75,30.03,10.0,North,15.0,21.9,N/A,,Overcast,10,2013-03-17 02:35:00
10:15 PM,37.4,30.2,75,30.04,10.0,North,13.8,-,N/A,,Overcast,10,2013-03-17 03:15:00
10:35 PM,37.4,30.2,75,30.05,10.0,NNE,15.0,21.9,N/A,,Overcast,20,2013-03-17 03:35:00
10:55 PM,35.6,30.2,81,30.05,10.0,NNE,11.5,19.6,N/A,,Overcast,30,2013-03-17 03:55:00
11:15 PM,35.6,30.2,81,30.06,10.0,NNE,9.2,-,N/A,,Overcast,30,2013-03-17 04:15:00
11:35 PM,35.6,28.4,75,30.07,10.0,NNE,10.4,19.6,N/A,,Overcast,30,2013-03-17 04:35:00
11:55 PM,35.6,28.4,75,30.07,10.0,NNE,10.4,19.6,N/A,,Overcast,30,2013-03-17 04:55:00